When you browse on this site, cookies collect data to enhance your experience and personalize the content and advertising you see.
Visit our Privacy Policy to learn more. By continuing to use the site, you agree to this use of cookies and data.
  • In Netherlands
  • List of Countries
  • For 7 days
  • Water Temperature
  • Satellite Maps
  • Weather Map
  • Weather Widgets
  • user-avatar
    Login

    Hourly Weather Reykjavík

    Today, 18 January, Friday

    Time Temperature Precipitation Wind Pressure Humidity
    00:00 0°C° 0.9 mm 4 mps 753 mmHg 92%
    01:00 +1°C° 0.9 mm 5 mps 753 mmHg 93%
    02:00 +1°C° 0.9 mm 5 mps 752 mmHg 94%
    03:00 +1°C° 1 mm 5 mps 753 mmHg 92%
    04:00 +1°C° 1 mm 5 mps 753 mmHg 91%
    05:00 +1°C° 0 mm 5 mps 753 mmHg 91%
    06:00 +1°C° 1.6 mm 5 mps 753 mmHg 92%
    07:00 +1°C° 1.6 mm 5 mps 753 mmHg 93%
    08:00 +1°C° 1.6 mm 5 mps 753 mmHg 94%
    09:00 +1°C° 1.3 mm 5 mps 753 mmHg 94%
    10:00 +1°C° 1.3 mm 5 mps 753 mmHg 95%
    11:00 +1°C° 1.3 mm 5 mps 753 mmHg 95%
    12:00 +1°C° 0.3 mm 6 mps 753 mmHg 95%
    13:00 +2°C° 0.3 mm 6 mps 753 mmHg 95%
    14:00 +2°C° 0.3 mm 7 mps 753 mmHg 95%
    15:00 +1°C° 0.1 mm 8 mps 753 mmHg 94%
    16:00 +1°C° 0.1 mm 8 mps 753 mmHg 94%
    17:00 +1°C° 0.1 mm 8 mps 753 mmHg 93%
    18:00 +1°C° 0 mm 8 mps 753 mmHg 92%
    19:00 +1°C° 0 mm 9 mps 753 mmHg 92%
    20:00 +1°C° 0 mm 9 mps 752 mmHg 91%
    21:00 +1°C° 0 mm 9 mps 752 mmHg 91%
    22:00 +1°C° 0 mm 9 mps 752 mmHg 90%
    23:00 +1°C° 0 mm 9 mps 752 mmHg 90%

    Tomorrow, 19 January, Saturday

    Time Temperature Precipitation Wind Pressure Humidity
    00:00 +1°C° 0 mm 10 mps 751 mmHg 89%
    01:00 +1°C° 0 mm 10 mps 751 mmHg 88%
    02:00 +1°C° 0 mm 11 mps 751 mmHg 88%
    03:00 0°C° 0.1 mm 12 mps 750 mmHg 88%
    04:00 0°C° 0.1 mm 13 mps 749 mmHg 89%
    05:00 +1°C° 0.1 mm 13 mps 749 mmHg 89%
    06:00 +1°C° 1 mm 13 mps 748 mmHg 90%
    07:00 0°C° 1 mm 13 mps 748 mmHg 90%
    08:00 0°C° 1 mm 12 mps 748 mmHg 90%
    09:00 -1°C° 2.9 mm 11 mps 748 mmHg 91%
    10:00 -1°C° 2.9 mm 9 mps 748 mmHg 91%
    11:00 -4°C° 2.9 mm 8 mps 748 mmHg 92%
    12:00 -3°C° 0.5 mm 7 mps 748 mmHg 87%
    13:00 -3°C° 0.5 mm 6 mps 748 mmHg 82%
    14:00 -2°C° 0.5 mm 5 mps 748 mmHg 77%
    15:00 -2°C° 0.2 mm 5 mps 749 mmHg 75%
    16:00 -3°C° 0.2 mm 6 mps 749 mmHg 74%
    17:00 -4°C° 0.2 mm 7 mps 749 mmHg 73%
    18:00 -4°C° 0.3 mm 7 mps 750 mmHg 73%
    19:00 -4°C° 0.3 mm 7 mps 750 mmHg 73%
    20:00 -4°C° 0.3 mm 7 mps 750 mmHg 73%
    21:00 -5°C° 0.4 mm 8 mps 750 mmHg 73%
    22:00 -5°C° 0.4 mm 8 mps 750 mmHg 74%
    23:00 -5°C° 0.4 mm 9 mps 751 mmHg 74%

    Day after tomorrow, 20 January, Sunday

    Time Temperature Precipitation Wind Pressure Humidity
    00:00 -5°C° 0.2 mm 9 mps 750 mmHg 71%
    01:00 -5°C° 0.2 mm 9 mps 750 mmHg 67%
    02:00 -6°C° 0.2 mm 9 mps 750 mmHg 64%
    03:00 -5°C° 0.4 mm 10 mps 750 mmHg 65%
    04:00 -6°C° 0.4 mm 11 mps 750 mmHg 66%
    05:00 -6°C° 0.4 mm 12 mps 750 mmHg 68%
    06:00 -6°C° 0.4 mm 12 mps 750 mmHg 67%
    07:00 -6°C° 0.4 mm 13 mps 751 mmHg 67%
    08:00 -7°C° 0.4 mm 13 mps 751 mmHg 67%
    09:00 -6°C° 0.4 mm 13 mps 751 mmHg 67%
    10:00 -6°C° 0.4 mm 13 mps 751 mmHg 68%
    11:00 -6°C° 0.4 mm 13 mps 751 mmHg 68%
    12:00 -6°C° 0.3 mm 12 mps 751 mmHg 68%
    13:00 -6°C° 0.3 mm 11 mps 751 mmHg 69%
    14:00 -5°C° 0.3 mm 9 mps 751 mmHg 69%
    15:00 -5°C° 0 mm 8 mps 750 mmHg 70%
    16:00 -4°C° 0 mm 7 mps 748 mmHg 71%
    17:00 -4°C° 0 mm 7 mps 747 mmHg 72%
    18:00 -4°C° 1.3 mm 11 mps 744 mmHg 77%
    19:00 -4°C° 1.3 mm 15 mps 741 mmHg 83%
    20:00 -3°C° 1.3 mm 20 mps 737 mmHg 88%
    21:00 -4°C° 1.8 mm 18 mps 736 mmHg 82%
    22:00 -4°C° 1.8 mm 17 mps 735 mmHg 75%
    23:00 -5°C° 1.8 mm 16 mps 733 mmHg 69%

    21 January, Monday

    Time Temperature Precipitation Wind Pressure Humidity
    00:00 -5°C° 0.2 mm 16 mps 733 mmHg 68%
    01:00 -7°C° 0.2 mm 16 mps 732 mmHg 68%
    02:00 -8°C° 0.2 mm 16 mps 732 mmHg 67%
    03:00 -8°C° 0.3 mm 16 mps 731 mmHg 73%
    04:00 -8°C° 0.3 mm 17 mps 730 mmHg 78%
    05:00 -8°C° 0.3 mm 17 mps 728 mmHg 84%
    06:00 -8°C° 1.5 mm 17 mps 728 mmHg 84%
    07:00 -7°C° 1.5 mm 17 mps 727 mmHg 85%
    08:00 -6°C° 1.5 mm 17 mps 727 mmHg 85%
    09:00 -5°C° 0.9 mm 16 mps 727 mmHg 83%
    10:00 -5°C° 0.9 mm 15 mps 727 mmHg 81%
    11:00 -5°C° 0.9 mm 14 mps 727 mmHg 80%
    12:00 -5°C° 0.5 mm 15 mps 727 mmHg 78%
    13:00 -5°C° 0.5 mm 16 mps 727 mmHg 77%
    14:00 -6°C° 0.5 mm 17 mps 727 mmHg 75%
    15:00 -6°C° 0.2 mm 17 mps 727 mmHg 75%
    16:00 -6°C° 0.2 mm 17 mps 728 mmHg 74%
    17:00 -6°C° 0.2 mm 17 mps 728 mmHg 74%
    18:00 -5°C° 0.3 mm 16 mps 728 mmHg 73%
    19:00 -5°C° 0.3 mm 14 mps 729 mmHg 72%
    20:00 -5°C° 0.3 mm 13 mps 729 mmHg 72%
    21:00 -5°C° 0.4 mm 12 mps 730 mmHg 77%
    22:00 -5°C° 0.4 mm 12 mps 731 mmHg 82%
    23:00 -4°C° 0.4 mm 11 mps 731 mmHg 87%

    22 January, Tuesday

    Time Temperature Precipitation Wind Pressure Humidity
    00:00 -6°C° 0.1 mm 11 mps 732 mmHg 84%
    01:00 -5°C° 0.1 mm 10 mps 734 mmHg 81%
    02:00 -7°C° 0.1 mm 10 mps 735 mmHg 79%
    03:00 -7°C° 0.2 mm 12 mps 736 mmHg 78%
    04:00 -7°C° 0.2 mm 13 mps 737 mmHg 77%
    05:00 -8°C° 0.2 mm 15 mps 738 mmHg 76%
    06:00 -6°C° 0.3 mm 13 mps 738 mmHg 77%
    07:00 -6°C° 0.3 mm 12 mps 739 mmHg 78%
    08:00 -5°C° 0.3 mm 10 mps 740 mmHg 79%
    09:00 -5°C° 0.2 mm 10 mps 741 mmHg 81%
    10:00 -6°C° 0.2 mm 11 mps 743 mmHg 83%
    11:00 -6°C° 0.2 mm 11 mps 744 mmHg 85%
    12:00 -7°C° 0.1 mm 10 mps 745 mmHg 83%
    13:00 -7°C° 0.1 mm 10 mps 746 mmHg 81%
    14:00 -8°C° 0.1 mm 10 mps 747 mmHg 79%
    15:00 -8°C° 0.1 mm 9 mps 748 mmHg 78%
    16:00 -7°C° 0.1 mm 8 mps 749 mmHg 78%
    17:00 -8°C° 0.1 mm 7 mps 750 mmHg 78%
    18:00 -8°C° 0 mm 7 mps 751 mmHg 78%
    19:00 -8°C° 0 mm 6 mps 751 mmHg 78%
    20:00 -8°C° 0 mm 6 mps 752 mmHg 77%
    21:00 -7°C° 0 mm 5 mps 753 mmHg 79%
    22:00 -7°C° 0 mm 5 mps 754 mmHg 80%
    23:00 -7°C° 0 mm 4 mps 755 mmHg 81%

    23 January, Wednesday

    Time Temperature Precipitation Wind Pressure Humidity
    00:00 -7°C° 0 mm 4 mps 756 mmHg 82%
    01:00 -6°C° 0 mm 3 mps 757 mmHg 84%
    02:00 -6°C° 0 mm 3 mps 758 mmHg 85%
    03:00 -7°C° 0 mm 3 mps 758 mmHg 85%
    04:00 -6°C° 0 mm 2 mps 759 mmHg 85%
    05:00 -6°C° 0 mm 2 mps 759 mmHg 84%
    06:00 -6°C° 0 mm 2 mps 760 mmHg 82%
    07:00 -6°C° 0 mm 2 mps 761 mmHg 80%
    08:00 -6°C° 0 mm 2 mps 761 mmHg 78%
    09:00 -6°C° 0 mm 2 mps 762 mmHg 76%
    10:00 -6°C° 0 mm 2 mps 762 mmHg 74%
    11:00 -6°C° 0 mm 2 mps 762 mmHg 72%
    12:00 -7°C° 0 mm 3 mps 763 mmHg 71%
    13:00 -7°C° 0 mm 3 mps 763 mmHg 70%
    14:00 -8°C° 0 mm 4 mps 763 mmHg 69%
    15:00 -8°C° 0 mm 4 mps 763 mmHg 71%
    16:00 -7°C° 0 mm 4 mps 763 mmHg 73%
    17:00 -7°C° 0 mm 5 mps 764 mmHg 74%
    18:00 -6°C° 0 mm 5 mps 764 mmHg 76%
    19:00 -5°C° 0 mm 6 mps 764 mmHg 77%
    20:00 -5°C° 0 mm 6 mps 763 mmHg 79%
    21:00 -4°C° 0.1 mm 7 mps 763 mmHg 80%
    22:00 -5°C° 0.1 mm 8 mps 763 mmHg 81%
    23:00 -5°C° 0.1 mm 8 mps 763 mmHg 81%
    Show more